Location: Limoges
(45.8354°N, 1.2645°E)
Time: 12:37:45
(UTC+01:00)

Courier 1B Rocket - All Passes

Search period start: 22 February 2024 00:00
Search period end: 03 March 2024 00:00
Orbit: 920 x 1202 km, 28.2° (Epoch: 21 February)

Date Brightness Start Highest point End Pass type
(mag) Time Alt. Az. Time Alt. Az. Time Alt. Az.
22 Feb - 05:00:43 10° S 05:02:45 12° SSE 05:04:48 10° SE visible
22 Feb - 06:51:19 10° SW 06:54:53 16° S 06:58:31 10° SE visible
22 Feb - 08:44:49 10° SW 08:47:05 12° SSW 08:49:23 10° S daylight
23 Feb - 05:50:49 10° SSW 05:54:09 15° S 05:57:33 10° SE visible
23 Feb - 07:43:22 10° SW 07:46:20 14° S 07:49:22 10° SSE daylight
24 Feb - 04:50:32 10° SSW 04:53:27 14° S 04:56:22 10° SE visible
24 Feb - 06:42:20 10° SW 06:45:36 15° S 06:48:56 10° SSE visible
25 Feb - 03:50:42 10° S 03:52:45 12° SSE 03:54:48 10° SSE visible
25 Feb - 05:41:30 10° SW 05:44:53 15° S 05:48:17 10° SSE visible
25 Feb - 07:35:26 10° SSW 07:37:02 11° SSW 07:38:38 10° S daylight
26 Feb - 04:40:52 10° SSW 04:44:10 15° S 04:47:28 10° SE visible
26 Feb - 06:33:41 10° SW 06:36:19 13° S 06:38:59 10° SSE visible
27 Feb - 03:40:27 10° SSW 03:43:27 14° S 03:46:26 10° SE visible
27 Feb - 05:32:28 10° SW 05:35:37 14° S 05:38:46 10° SSE visible
28 Feb - 02:40:22 10° S 02:42:45 12° SSE 02:45:06 10° SE night (unlit)
28 Feb - 04:31:31 10° SW 04:34:54 15° S 04:38:16 10° SSE visible
28 Feb - 06:25:59 10° SSW 06:27:01 10° SSW 06:28:03 10° S visible
29 Feb - 01:41:28 10° SSE 01:42:02 10° SSE 01:42:35 10° SSE night (unlit)
29 Feb - 03:30:43 10° SSW 03:34:11 15° S 03:37:35 10° SE visible
29 Feb - 05:23:47 10° SW 05:26:19 13° SSW 05:28:52 10° SSE visible
01 Mar - 02:30:08 10° SSW 02:33:27 14° S 02:36:41 10° SE night (unlit)
01 Mar - 04:22:24 10° SW 04:25:37 14° S 04:28:48 10° SSE visible
02 Mar - 01:29:49 10° SSW 01:32:42 13° SSE 01:35:31 10° SE night (unlit)
02 Mar - 03:21:18 10° SW 03:24:54 15° S 03:28:26 10° SSE visible
02 Mar - 05:16:05 10° SSW 05:17:01 10° SSW 05:17:56 10° S visible
